Kosmos-832

operational
NORAD ID: 8896 Int'l Des: 1976-054 Owner: GUKOSR Country: SU
LEOCIRCULAR

About Kosmos-832

Description loading...

Live Position

Loading 3D Globe...

Upcoming Passes

Altitude History

Altitude vs Time

uPlot chart will show altitude changes over time

Two-Line Element Set

1 8896U 76054H 26061.11961933 .00000014 00000-0 21333-3 0 9991
2 8896 73.9975 95.9500 0023476 89.0795 334.3471 12.41320817252611
Epoch: Mar 2, 2026 • Age: 28 hours

Current Status

Altitude 1494.3 km
Velocity 7.13 km/s
Sub-Earth Point 49.93°N, 28.42°E
Type other

Large Constellations

Loading constellations...